Location: Boiro
(42.6475°N, 8.8834°W)
Time: 07:11:28
(UTC+01:00)

HuskySat-1 - Visible Passes

Search period start: 28 January 2022 00:00
Search period end: 07 February 2022 00:00
Orbit: 439 x 452 km, 51.6° (Epoch: 27 January)

Date Brightness Start Highest point End Pass type
(mag) Time Alt. Az. Time Alt. Az. Time Alt. Az.
28 Jan ? 20:47:49 10° SSW 20:49:32 25° SSW 20:49:32 25° SSW visible
29 Jan ? 20:09:04 10° SSW 20:12:10 30° SE 20:12:33 30° ESE visible
30 Jan ? 19:30:27 10° S 19:33:13 22° SE 19:35:29 13° E visible
30 Jan ? 21:06:57 10° WSW 21:09:00 31° W 21:09:00 31° W visible
31 Jan ? 20:27:48 10° WSW 20:31:16 70° NNW 20:31:49 57° NNE visible
01 Feb ? 19:48:40 10° SW 19:52:09 86° SE 19:54:32 19° ENE visible
01 Feb ? 21:26:56 10° WNW 21:28:03 16° WNW 21:28:03 16° WNW visible
02 Feb ? 20:47:34 10° W 20:50:39 28° NNW 20:50:41 28° NNW visible
03 Feb ? 20:08:11 10° W 20:11:23 33° NNW 20:13:14 20° NNE visible
04 Feb ? 19:28:49 10° W 19:32:09 41° NNW 19:35:29 10° NE visible
04 Feb ? 21:07:36 10° NW 21:09:14 17° NNW 21:09:14 17° NNW visible
05 Feb ? 20:28:10 10° WNW 20:30:51 20° N 20:31:41 18° N visible
06 Feb ? 19:48:42 10° WNW 19:51:29 22° NNW 19:54:06 11° NE visible
06 Feb ? 21:27:05 10° NW 21:27:35 12° NW 21:27:35 12° NW visible
